Flag for Germany Weather past 2 weeks in Pinneberg, Schleswig-Holstein, Germany

Now
79 °F

Scattered clouds.


Feels Like: 80 °F
Forecast: 63 / 80 °F
Wind: 10 mph from Northeast

Location: Hamburg-Fuhlsbuettel

Current Time: Jul 28, 2014 at 8:41:59 PM

Latest Report: Jul 28, 2014 at 8:20 PM


Visibility: N/A

Pressure: 29.89 "Hg

Humidity: 58%

Dew point: 63 °F

Location of PinnebergLocation

Historic Weather in Pinneberg — Graph

°F

Pinneberg temperature yesterday

Maximum temperature yesterday: 82 °F (at 2:50 PM)
Minimum temperature yesterday: 61 °F (at 1:50 AM)
Average temperature yesterday: 70 °F

Past Weeks' High & Low Weather Summary

 TemperatureHumidityPressure
High88 °F (Jul 19, 2:20 PM)100% (Jul 13, 7:50 PM)30.18 "Hg (Jul 13, 7:50 PM)
Low52 °F (Jul 17, 4:20 AM)29% (Jul 19, 6:20 PM)29.65 "Hg (Jul 13, 9:20 PM)
Average70 °F71%30.00 "Hg
* Reported Jul 13 7:20 PM — Jul 28 7:50 PM, Pinneberg, Weather by CustomWeather, © 2014

Note: Actual official high and low records may vary slightly from our data, if they occured in-between our weather recording intervals... More about our weather records

Advertising

Pinneberg weather history for previous 24 hours

 ConditionsComfort  
Time TempWeatherWind HumidityBarometerVisibility
7:50 PM
Jul 28
79 °FScattered clouds.10 mph58%29.86 "HgN/A
7:20 PM81 °FScattered clouds.10 mph54%29.86 "HgN/A
6:50 PM82 °FScattered clouds.9 mph48%29.86 "HgN/A
6:20 PM82 °FScattered clouds.9 mph48%29.86 "HgN/A
5:50 PM82 °FScattered clouds.7 mph51%29.86 "HgN/A
5:20 PM82 °FScattered clouds.8 mph48%29.86 "HgN/A
4:50 PM82 °FScattered clouds.8 mph48%29.89 "HgN/A
4:20 PM82 °FScattered clouds.6 mph45%29.89 "HgN/A
3:50 PM81 °FScattered clouds.6 mph48%29.89 "HgN/A
3:20 PM81 °FPassing clouds.6 mph48%29.89 "HgN/A
2:50 PM81 °FScattered clouds.8 mph51%29.89 "HgN/A
2:20 PM79 °FScattered clouds.7 mph54%29.92 "HgN/A
1:50 PM81 °FScattered clouds.6 mph54%29.92 "HgN/A
1:20 PM77 °FScattered clouds.8 mph61%29.92 "HgN/A
12:50 PM77 °FScattered clouds.5 mph57%29.92 "HgN/A
12:20 PM77 °FScattered clouds.7 mph61%29.95 "HgN/A
11:50 AM75 °FScattered clouds.7 mph65%29.95 "HgN/A
11:20 AM75 °FScattered clouds.7 mph69%29.95 "HgN/A
10:50 AM75 °FScattered clouds.6 mph69%29.95 "HgN/A
10:20 AM73 °FScattered clouds.7 mph74%29.95 "HgN/A
9:50 AM72 °FScattered clouds.6 mph78%29.95 "HgN/A
9:20 AM70 °FScattered clouds.6 mph83%29.95 "HgN/A
8:50 AM68 °FPassing clouds.5 mph88%29.95 "Hg6 mi
8:20 AM66 °FScattered clouds.3 mph94%29.95 "Hg5 mi
7:50 AM64 °FFog.3 mph100%29.95 "Hg3 mi
7:20 AM63 °FMild.3 mph100%29.95 "Hg2 mi
6:50 AM61 °FFog.2 mph100%29.95 "Hg1 mi
6:20 AM59 °FFog.2 mph100%29.95 "Hg0 mi
5:50 AM59 °FFog.3 mph100%29.95 "Hg1 mi
5:20 AM59 °FFog.3 mph100%29.95 "Hg1 mi
4:20 AM63 °FFog.5 mph100%29.95 "Hg1 mi
3:50 AM61 °FFog.2 mph100%29.95 "Hg1 mi
3:20 AM61 °FCool.1 mph100%29.95 "Hg4 mi
2:50 AM61 °FCool.2 mph100%29.95 "Hg4 mi
2:20 AM63 °FFog.3 mph100%29.95 "Hg4 mi
1:20 AM63 °FMild.2 mph100%29.95 "HgN/A
12:50 AM63 °FMild.1 mph100%29.98 "HgN/A
12:20 AM64 °FClear.1 mph94%29.98 "Hg10 mi
11:50 PM
Jul 27
64 °FClear.1 mph94%29.98 "Hg10 mi
11:20 PM66 °FClear.5 mph94%29.95 "Hg10 mi
10:50 PM66 °FClear.5 mph94%29.98 "Hg10 mi
10:20 PM68 °FPassing clouds.5 mph88%29.98 "HgN/A
9:50 PM70 °FSunny.6 mph83%29.98 "Hg10 mi
9:20 PM70 °FPassing clouds.6 mph83%29.95 "HgN/A
8:50 PM72 °FPassing clouds.5 mph73%29.95 "HgN/A
8:20 PM73 °FPassing clouds.8 mph69%29.95 "HgN/A
Weather by CustomWeather, © 2014

See weather overviewHow to use our weather pages